| time (UTC) | temp F | wind direction | speed knots | gust knots | rain 1hr in | rain 24hr in | rain mn in | humidity % | barometer mb |
| 20260508173842 | 66 | 198 | 0.0 | 0.0 | 0.00 | 0.00 | 0.09 | 82 | 1013.8 |
| 20260508173332 | 66 | 153 | 0.9 | 0.0 | 0.00 | 0.00 | 0.09 | 81 | 1013.7 |
| 20260508172842 | 66 | 136 | 1.7 | 0.0 | 0.00 | 0.00 | 0.09 | 81 | 1013.6 |
| 20260508172347 | 66 | 75 | 1.7 | 0.0 | 0.00 | 0.00 | 0.09 | 81 | 1013.6 |
| 20260508171332 | 66 | 155 | 0.9 | 0.0 | 0.00 | 0.00 | 0.09 | 81 | 1013.4 |
| 20260508170902 | 67 | 94 | 0.9 | 0.0 | 0.00 | 0.00 | 0.09 | 81 | 1013.5 |
| 20260508170348 | 67 | 105 | 1.7 | 0.0 | 0.00 | 0.00 | 0.09 | 80 | 1013.5 |
| 20260508165831 | 67 | 106 | 1.7 | 0.0 | 0.00 | 0.00 | 0.09 | 79 | 1013.5 |
| 20260508165342 | 67 | 188 | 1.7 | 0.0 | 0.00 | 0.00 | 0.09 | 80 | 1013.5 |
| 20260508164832 | 67 | 203 | 1.7 | 0.0 | 0.00 | 0.00 | 0.09 | 81 | 1013.5 |
| 20260508164342 | 67 | 149 | 1.7 | 0.0 | 0.00 | 0.00 | 0.09 | 81 | 1013.4 |
| 20260508163850 | 67 | 175 | 1.7 | 0.0 | 0.00 | 0.00 | 0.09 | 81 | 1013.3 |
| 20260508163341 | 66 | 224 | 2.6 | 0.0 | 0.00 | 0.00 | 0.09 | 82 | 1013.2 |
| 20260508162831 | 66 | 165 | 2.6 | 0.0 | 0.00 | 0.00 | 0.09 | 81 | 1013.1 |
| 20260508162401 | 66 | 188 | 2.6 | 0.0 | 0.00 | 0.00 | 0.09 | 81 | 1013.1 |
| 20260508161831 | 67 | 139 | 1.7 | 0.0 | 0.00 | 0.00 | 0.09 | 80 | 1013.2 |
| 20260508161339 | 67 | 184 | 1.7 | 0.0 | 0.00 | 0.00 | 0.09 | 82 | 1013.3 |
| 20260508160830 | 66 | 195 | 2.6 | 0.0 | 0.00 | 0.00 | 0.09 | 83 | 1013.1 |
| 20260508160341 | 66 | 150 | 2.6 | 0.0 | 0.00 | 0.00 | 0.09 | 83 | 1013.1 |
| 20260508155846 | 66 | 162 | 2.6 | 0.0 | 0.00 | 0.00 | 0.09 | 84 | 1013.1 |
| 20260508155332 | 66 | 178 | 1.7 | 0.0 | 0.00 | 0.00 | 0.09 | 84 | 1013.3 |
| 20260508154842 | 66 | 150 | 1.7 | 0.0 | 0.00 | 0.00 | 0.09 | 86 | 1013.5 |
| 20260508154334 | 65 | 121 | 2.6 | 0.0 | 0.00 | 0.00 | 0.09 | 87 | 1013.5 |
| 20260508153825 | 64 | 167 | 1.7 | 0.0 | 0.00 | 0.00 | 0.09 | 87 | 1013.4 |
| 20260508153336 | 64 | 182 | 0.9 | 0.0 | 0.00 | 0.00 | 0.09 | 89 | 1013.5 |
| 20260508152827 | 64 | 153 | 0.9 | 0.0 | 0.00 | 0.00 | 0.09 | 89 | 1013.6 |
| 20260508152333 | 64 | 203 | 0.0 | 0.0 | 0.00 | 0.00 | 0.09 | 89 | 1013.9 |
| 20260508151844 | 64 | 174 | 0.0 | 0.0 | 0.00 | 0.00 | 0.09 | 89 | 1014.1 |
| 20260508151336 | 64 | 142 | 0.9 | 0.0 | 0.00 | 0.00 | 0.09 | 89 | 1014.1 |
| 20260508150826 | 64 | 109 | 1.7 | 0.0 | 0.00 | 0.00 | 0.09 | 88 | 1014.0 |
| 20260508150352 | 64 | 64 | 1.7 | 0.0 | 0.00 | 0.00 | 0.09 | 89 | 1013.8 |
| 20260508145856 | 64 | 41 | 1.7 | 0.0 | 0.00 | 0.00 | 0.09 | 89 | 1013.7 |
| 20260508145340 | 64 | 61 | 1.7 | 0.0 | 0.00 | 0.00 | 0.09 | 89 | 1014.1 |
| 20260508144830 | 64 | 52 | 0.9 | 0.0 | 0.00 | 0.00 | 0.09 | 89 | 1014.2 |
| 20260508144336 | 64 | 25 | 1.7 | 0.0 | 0.00 | 0.00 | 0.09 | 89 | 1014.4 |
| 20260508143827 | 63 | 44 | 2.6 | 0.0 | 0.00 | 0.00 | 0.09 | 88 | 1014.5 |
| 20260508143338 | 64 | 36 | 2.6 | 0.0 | 0.00 | 0.00 | 0.09 | 88 | 1014.4 |
| 20260508142828 | 64 | 41 | 0.9 | 0.0 | 0.00 | 0.00 | 0.09 | 89 | 1014.3 |
| 20260508142359 | 64 | 43 | 0.9 | 0.0 | 0.00 | 0.00 | 0.09 | 89 | 1014.6 |
| 20260508141844 | 64 | 24 | 0.9 | 0.0 | 0.00 | 0.00 | 0.09 | 89 | 1014.6 |
| 20260508141336 | 64 | 81 | 0.9 | 0.0 | 0.00 | 0.00 | 0.09 | 89 | 1014.6 |
| 20260508140827 | 63 | 1 | 0.9 | 0.0 | 0.00 | 0.00 | 0.09 | 89 | 1014.7 |
| 20260508140357 | 63 | 1 | 0.9 | 0.0 | 0.00 | 0.00 | 0.09 | 89 | 1014.6 |
| 20260508135836 | 63 | 64 | 0.9 | 0.0 | 0.00 | 0.00 | 0.09 | 89 | 1014.6 |
| 20260508135355 | 63 | 54 | 1.7 | 0.0 | 0.00 | 0.00 | 0.09 | 88 | 1014.5 |
| 20260508134844 | 64 | 89 | 1.7 | 0.0 | 0.00 | 0.00 | 0.09 | 89 | 1014.3 |
| 20260508134335 | 64 | 57 | 2.6 | 0.0 | 0.00 | 0.00 | 0.09 | 89 | 1014.2 |
| 20260508133905 | 64 | 10 | 2.6 | 0.0 | 0.00 | 0.00 | 0.09 | 89 | 1014.2 |
| 20260508133331 | 63 | 70 | 1.7 | 0.0 | 0.00 | 0.00 | 0.09 | 89 | 1014.4 |
| 20260508132842 | 63 | 52 | 1.7 | 0.0 | 0.00 | 0.00 | 0.09 | 89 | 1014.4 |
| 20260508132353 | 63 | 78 | 2.6 | 0.0 | 0.00 | 0.00 | 0.09 | 89 | 1014.3 |
| 20260508131337 | 63 | 56 | 4.3 | 0.0 | 0.00 | 0.00 | 0.09 | 89 | 1014.2 |
| 20260508130844 | 63 | 33 | 4.3 | 0.0 | 0.00 | 0.00 | 0.09 | 89 | 1014.3 |
| 20260508130334 | 63 | 100 | 3.5 | 0.0 | 0.00 | 0.00 | 0.09 | 89 | 1014.3 |
| 20260508125917 | 63 | 48 | 4.3 | 0.0 | 0.00 | 0.00 | 0.09 | 89 | 1014.2 |
| 20260508125342 | 63 | 61 | 3.5 | 0.0 | 0.00 | 0.00 | 0.09 | 88 | 1014.3 |
| 20260508124829 | 64 | 63 | 3.5 | 0.0 | 0.00 | 0.00 | 0.09 | 88 | 1014.1 |
| 20260508124339 | 64 | 32 | 3.5 | 0.0 | 0.00 | 0.00 | 0.09 | 87 | 1014.1 |
| 20260508123829 | 64 | 47 | 3.5 | 0.0 | 0.00 | 0.00 | 0.09 | 86 | 1014.1 |
| 20260508123358 | 65 | 85 | 3.5 | 0.0 | 0.00 | 0.00 | 0.09 | 85 | 1014.1 |
| 20260508122827 | 65 | 92 | 4.3 | 0.0 | 0.00 | 0.00 | 0.09 | 84 | 1014.1 |
| 20260508122333 | 65 | 41 | 3.5 | 0.0 | 0.00 | 0.00 | 0.09 | 83 | 1014.1 |
| 20260508121904 | 65 | 58 | 3.5 | 0.0 | 0.00 | 0.00 | 0.09 | 84 | 1014.0 |
| 20260508121333 | 65 | 79 | 3.5 | 0.0 | 0.00 | 0.00 | 0.09 | 85 | 1014.0 |
| 20260508120845 | 65 | 89 | 3.5 | 0.0 | 0.00 | 0.00 | 0.09 | 85 | 1014.0 |
| 20260508120350 | 65 | 97 | 3.5 | 0.0 | 0.00 | 0.00 | 0.09 | 87 | 1014.0 |
| 20260508115833 | 65 | 97 | 3.5 | 0.0 | 0.00 | 0.00 | 0.09 | 87 | 1014.1 |
| 20260508115336 | 64 | 110 | 3.5 | 0.0 | 0.00 | 0.00 | 0.09 | 88 | 1014.2 |
| 20260508114904 | 64 | 81 | 2.6 | 0.0 | 0.00 | 0.00 | 0.09 | 88 | 1014.2 |
| 20260508114349 | 64 | 72 | 4.3 | 0.0 | 0.00 | 0.00 | 0.09 | 88 | 1014.1 |
| 20260508113838 | 64 | 108 | 4.3 | 0.0 | 0.00 | 0.00 | 0.09 | 88 | 1014.2 |
| 20260508113328 | 64 | 92 | 3.5 | 0.0 | 0.00 | 0.00 | 0.09 | 87 | 1014.1 |
| 20260508112854 | 64 | 103 | 3.5 | 0.0 | 0.00 | 0.00 | 0.09 | 86 | 1014.3 |
| 20260508112344 | 64 | 56 | 3.5 | 0.0 | 0.00 | 0.00 | 0.09 | 85 | 1014.4 |
| 20260508111834 | 64 | 103 | 2.6 | 0.0 | 0.00 | 0.00 | 0.09 | 85 | 1014.3 |
| 20260508111344 | 64 | 74 | 2.6 | 0.0 | 0.00 | 0.00 | 0.09 | 85 | 1014.4 |
| 20260508110835 | 64 | 78 | 2.6 | 0.0 | 0.00 | 0.00 | 0.09 | 85 | 1014.4 |
| 20260508110402 | 64 | 47 | 2.6 | 0.0 | 0.00 | 0.00 | 0.09 | 85 | 1014.4 |
| 20260508105845 | 64 | 74 | 3.5 | 0.0 | 0.00 | 0.00 | 0.09 | 85 | 1014.5 |
| 20260508105356 | 64 | 96 | 4.3 | 0.0 | 0.00 | 0.00 | 0.09 | 85 | 1014.4 |
| 20260508104827 | 64 | 50 | 4.3 | 0.0 | 0.00 | 0.00 | 0.09 | 84 | 1014.4 |
| 20260508104336 | 65 | 67 | 3.5 | 0.0 | 0.00 | 0.00 | 0.09 | 83 | 1014.3 |
| 20260508103842 | 65 | 46 | 3.5 | 0.0 | 0.00 | 0.00 | 0.09 | 83 | 1014.2 |
| 20260508103333 | 65 | 124 | 3.5 | 0.0 | 0.00 | 0.00 | 0.09 | 83 | 1014.3 |
| 20260508102842 | 65 | 60 | 3.5 | 0.0 | 0.00 | 0.00 | 0.09 | 83 | 1014.3 |
| 20260508102328 | 65 | 80 | 2.6 | 0.0 | 0.00 | 0.00 | 0.09 | 83 | 1014.3 |
| 20260508101838 | 65 | 83 | 3.5 | 0.0 | 0.00 | 0.00 | 0.09 | 83 | 1014.3 |
| 20260508101345 | 65 | 62 | 3.5 | 0.0 | 0.00 | 0.00 | 0.09 | 83 | 1014.3 |
| 20260508100835 | 65 | 82 | 4.3 | 0.0 | 0.00 | 0.00 | 0.09 | 84 | 1014.3 |
| 20260508100345 | 65 | 62 | 4.3 | 0.0 | 0.00 | 0.00 | 0.09 | 84 | 1014.4 |
| 20260508095845 | 65 | 58 | 4.3 | 0.0 | 0.00 | 0.00 | 0.09 | 83 | 1014.4 |
| 20260508095353 | 65 | 87 | 4.3 | 0.0 | 0.00 | 0.00 | 0.09 | 84 | 1014.4 |
| 20260508094843 | 64 | 103 | 3.5 | 0.0 | 0.00 | 0.00 | 0.09 | 85 | 1014.5 |
| 20260508094353 | 63 | 86 | 3.5 | 0.0 | 0.00 | 0.00 | 0.09 | 86 | 1014.7 |
| 20260508093842 | 63 | 59 | 3.5 | 0.0 | 0.00 | 0.00 | 0.09 | 87 | 1014.7 |
| 20260508093334 | 63 | 72 | 2.6 | 0.0 | 0.00 | 0.00 | 0.09 | 88 | 1014.6 |
| 20260508092841 | 63 | 54 | 2.6 | 0.0 | 0.00 | 0.00 | 0.09 | 88 | 1014.5 |
| 20260508092332 | 62 | 54 | 2.6 | 0.0 | 0.00 | 0.00 | 0.09 | 88 | 1014.5 |
| 20260508091830 | 62 | 73 | 2.6 | 0.0 | 0.00 | 0.00 | 0.09 | 89 | 1014.7 |
| 20260508091342 | 62 | 74 | 2.6 | 0.0 | 0.00 | 0.00 | 0.09 | 89 | 1014.7 |
| 20260508090832 | 61 | 75 | 2.6 | 0.0 | 0.00 | 0.00 | 0.09 | 89 | 1014.6 |
| 20260508090338 | 61 | 1 | 1.7 | 0.0 | 0.00 | 0.00 | 0.09 | 90 | 1014.6 |
| 20260508085844 | 61 | 63 | 2.6 | 0.0 | 0.00 | 0.00 | 0.09 | 90 | 1014.4 |
| 20260508085354 | 61 | 76 | 2.6 | 0.0 | 0.00 | 0.00 | 0.09 | 90 | 1014.4 |
| 20260508084843 | 61 | 84 | 2.6 | 0.0 | 0.00 | 0.00 | 0.09 | 90 | 1014.4 |
| 20260508084335 | 61 | 65 | 2.6 | 0.0 | 0.00 | 0.00 | 0.09 | 90 | 1014.4 |
| 20260508083842 | 61 | 101 | 2.6 | 0.0 | 0.00 | 0.00 | 0.09 | 91 | 1014.4 |
| 20260508083332 | 61 | 82 | 3.5 | 0.0 | 0.00 | 0.00 | 0.09 | 91 | 1014.4 |
| 20260508082842 | 61 | 105 | 3.5 | 0.0 | 0.00 | 0.00 | 0.09 | 92 | 1014.3 |
| 20260508082333 | 61 | 90 | 3.5 | 0.0 | 0.00 | 0.00 | 0.09 | 92 | 1014.3 |
| 20260508081844 | 61 | 1 | 2.6 | 0.0 | 0.00 | 0.00 | 0.09 | 93 | 1014.3 |
| 20260508081330 | 61 | 335 | 1.7 | 0.0 | 0.00 | 0.00 | 0.09 | 94 | 1014.3 |
| 20260508080840 | 60 | 60 | 2.6 | 0.0 | 0.00 | 0.00 | 0.09 | 94 | 1014.4 |
| 20260508080333 | 60 | 67 | 2.6 | 0.0 | 0.00 | 0.00 | 0.09 | 95 | 1014.3 |
| 20260508075836 | 60 | 68 | 2.6 | 0.0 | 0.00 | 0.00 | 0.09 | 95 | 1014.3 |
| 20260508075347 | 59 | 80 | 1.7 | 0.0 | 0.00 | 0.00 | 0.09 | 95 | 1014.2 |
| 20260508074832 | 59 | 83 | 1.7 | 0.0 | 0.00 | 0.00 | 0.09 | 95 | 1014.0 |
| 20260508074343 | 59 | 74 | 1.7 | 0.0 | 0.00 | 0.00 | 0.09 | 95 | 1014.0 |
| 20260508073833 | 59 | 41 | 1.7 | 0.0 | 0.00 | 0.00 | 0.09 | 95 | 1014.0 |
| 20260508073404 | 59 | 34 | 0.9 | 0.0 | 0.00 | 0.00 | 0.09 | 95 | 1014.1 |
| 20260508072826 | 58 | 77 | 1.7 | 0.0 | 0.00 | 0.00 | 0.09 | 95 | 1014.1 |
| 20260508072337 | 58 | 92 | 1.7 | 0.0 | 0.00 | 0.00 | 0.09 | 95 | 1014.0 |
| 20260508071827 | 58 | 65 | 1.7 | 0.0 | 0.00 | 0.00 | 0.09 | 95 | 1014.0 |
| 20260508071338 | 58 | 110 | 1.7 | 0.0 | 0.00 | 0.00 | 0.09 | 95 | 1014.1 |
| 20260508070828 | 58 | 98 | 1.7 | 0.0 | 0.00 | 0.00 | 0.09 | 95 | 1014.1 |
| 20260508070336 | 58 | 83 | 1.7 | 0.0 | 0.00 | 0.00 | 0.09 | 95 | 1014.0 |
| 20260508065840 | 58 | 91 | 1.7 | 0.0 | 0.00 | 0.00 | 0.09 | 95 | 1014.0 |
| 20260508065329 | 58 | 101 | 1.7 | 0.0 | 0.00 | 0.00 | 0.09 | 95 | 1013.9 |
| 20260508064859 | 58 | 89 | 2.6 | 0.0 | 0.00 | 0.00 | 0.09 | 95 | 1013.9 |
| 20260508064401 | 58 | 84 | 2.6 | 0.0 | 0.00 | 0.00 | 0.09 | 95 | 1013.9 |
| 20260508063906 | 58 | 103 | 2.6 | 0.0 | 0.00 | 0.00 | 0.09 | 95 | 1013.9 |
| 20260508063332 | 58 | 94 | 2.6 | 0.0 | 0.00 | 0.00 | 0.09 | 95 | 1013.8 |
| 20260508062843 | 58 | 105 | 2.6 | 0.0 | 0.00 | 0.00 | 0.09 | 95 | 1013.8 |
| 20260508062334 | 58 | 67 | 2.6 | 0.0 | 0.00 | 0.00 | 0.09 | 95 | 1013.8 |
| 20260508061840 | 58 | 101 | 1.7 | 0.0 | 0.00 | 0.00 | 0.09 | 95 | 1013.6 |
| 20260508061351 | 58 | 114 | 0.9 | 0.0 | 0.00 | 0.00 | 0.09 | 96 | 1013.6 |
| 20260508060840 | 58 | 98 | 1.7 | 0.0 | 0.00 | 0.00 | 0.09 | 96 | 1013.5 |
| 20260508060331 | 58 | 72 | 1.7 | 0.0 | 0.00 | 0.00 | 0.09 | 95 | 1013.5 |
| 20260508055830 | 58 | 71 | 1.7 | 0.0 | 0.00 | 0.00 | 0.09 | 95 | 1013.5 |
| 20260508055340 | 58 | 69 | 1.7 | 0.0 | 0.00 | 0.00 | 0.09 | 95 | 1013.4 |
| 20260508054830 | 58 | 96 | 1.7 | 0.0 | 0.00 | 0.00 | 0.09 | 96 | 1013.4 |
| 20260508054342 | 57 | 102 | 0.9 | 0.0 | 0.00 | 0.00 | 0.09 | 95 | 1013.4 |
| 20260508053832 | 57 | 125 | 0.9 | 0.0 | 0.00 | 0.00 | 0.09 | 96 | 1013.3 |
| 20260508053358 | 57 | 63 | 0.9 | 0.0 | 0.00 | 0.00 | 0.09 | 96 | 1013.2 |
| 20260508052828 | 57 | 87 | 1.7 | 0.0 | 0.00 | 0.00 | 0.09 | 96 | 1013.1 |
| 20260508052338 | 57 | 91 | 1.7 | 0.0 | 0.00 | 0.00 | 0.09 | 96 | 1013.0 |
| 20260508051829 | 57 | 73 | 1.7 | 0.0 | 0.00 | 0.00 | 0.09 | 96 | 1012.9 |
| 20260508051327 | 57 | 94 | 1.7 | 0.0 | 0.00 | 0.00 | 0.09 | 96 | 1012.8 |
| 20260508050833 | 57 | 94 | 0.9 | 0.0 | 0.00 | 0.00 | 0.09 | 96 | 1012.5 |
| 20260508050344 | 57 | 44 | 0.9 | 0.0 | 0.00 | 0.00 | 0.09 | 95 | 1012.5 |
| 20260508045848 | 57 | 85 | 1.7 | 0.0 | 0.00 | 0.00 | 0.09 | 95 | 1012.4 |
| 20260508045335 | 57 | 88 | 0.9 | 0.0 | 0.00 | 0.00 | 0.09 | 95 | 1012.2 |
| 20260508044845 | 57 | 107 | 0.9 | 0.0 | 0.00 | 0.00 | 0.09 | 95 | 1012.2 |
| 20260508044351 | 57 | 156 | 0.9 | 0.0 | 0.00 | 0.00 | 0.09 | 95 | 1012.2 |
| 20260508043841 | 57 | 101 | 0.9 | 0.0 | 0.00 | 0.00 | 0.09 | 95 | 1012.1 |
| 20260508043332 | 57 | 82 | 0.9 | 0.0 | 0.00 | 0.00 | 0.09 | 95 | 1012.0 |
| 20260508042842 | 57 | 101 | 0.9 | 0.0 | 0.00 | 0.00 | 0.09 | 95 | 1012.0 |
| 20260508042333 | 57 | 113 | 0.9 | 0.0 | 0.00 | 0.00 | 0.09 | 96 | 1012.1 |
| 20260508041859 | 57 | 96 | 0.9 | 0.0 | 0.00 | 0.00 | 0.09 | 95 | 1012.0 |
| 20260508041347 | 57 | 110 | 0.9 | 0.0 | 0.00 | 0.00 | 0.09 | 95 | 1012.0 |
| 20260508040836 | 57 | 115 | 0.9 | 0.0 | 0.00 | 0.00 | 0.09 | 95 | 1012.0 |
| 20260508040326 | 58 | 104 | 0.9 | 0.0 | 0.00 | 0.00 | 0.09 | 95 | 1011.9 |
| 20260508035825 | 58 | 58 | 0.9 | 0.0 | 0.00 | 0.00 | 0.09 | 95 | 1011.9 |
| 20260508035356 | 58 | 46 | 0.9 | 0.0 | 0.00 | 0.00 | 0.09 | 95 | 1012.0 |
| 20260508034825 | 58 | 72 | 0.9 | 0.0 | 0.00 | 0.00 | 0.09 | 95 | 1012.0 |
| 20260508034343 | 58 | 77 | 0.9 | 0.0 | 0.00 | 0.00 | 0.09 | 96 | 1012.1 |
| 20260508033830 | 58 | 101 | 0.9 | 0.0 | 0.00 | 0.00 | 0.09 | 96 | 1012.2 |
| 20260508033337 | 58 | 89 | 1.7 | 0.0 | 0.00 | 0.00 | 0.09 | 95 | 1012.2 |
| 20260508032827 | 58 | 98 | 1.7 | 0.0 | 0.00 | 0.00 | 0.09 | 95 | 1012.3 |
| 20260508032337 | 58 | 63 | 0.9 | 0.0 | 0.00 | 0.00 | 0.09 | 95 | 1012.3 |
| 20260508031827 | 58 | 95 | 0.0 | 0.0 | 0.00 | 0.00 | 0.09 | 95 | 1012.3 |
| 20260508031355 | 58 | 92 | 0.9 | 0.0 | 0.00 | 0.00 | 0.09 | 95 | 1012.4 |
| 20260508030843 | 58 | 77 | 0.9 | 0.0 | 0.00 | 0.00 | 0.09 | 95 | 1012.3 |
| 20260508030333 | 58 | 94 | 0.9 | 0.0 | 0.00 | 0.00 | 0.09 | 95 | 1012.3 |
| 20260508025856 | 58 | 60 | 0.9 | 0.0 | 0.00 | 0.00 | 0.09 | 95 | 1012.4 |
| 20260508025404 | 58 | 39 | 0.9 | 0.0 | 0.00 | 0.00 | 0.09 | 95 | 1012.4 |
| 20260508024832 | 58 | 45 | 0.9 | 0.0 | 0.00 | 0.00 | 0.09 | 95 | 1012.3 |
| 20260508024342 | 58 | 41 | 0.9 | 0.0 | 0.00 | 0.00 | 0.09 | 95 | 1012.3 |
| 20260508023833 | 58 | 79 | 0.9 | 0.0 | 0.00 | 0.00 | 0.09 | 95 | 1012.3 |
| 20260508023344 | 58 | 70 | 0.9 | 0.0 | 0.00 | 0.00 | 0.09 | 96 | 1012.3 |
| 20260508022835 | 57 | 45 | 0.9 | 0.0 | 0.00 | 0.00 | 0.09 | 96 | 1012.3 |
| 20260508022341 | 57 | 63 | 0.9 | 0.0 | 0.00 | 0.00 | 0.09 | 96 | 1012.3 |
| 20260508021831 | 57 | 108 | 0.9 | 0.0 | 0.00 | 0.00 | 0.09 | 95 | 1012.3 |
| 20260508021343 | 57 | 92 | 1.7 | 0.0 | 0.00 | 0.00 | 0.09 | 95 | 1012.3 |
| 20260508020833 | 57 | 105 | 1.7 | 0.0 | 0.00 | 0.00 | 0.09 | 95 | 1012.2 |
| 20260508020344 | 57 | 45 | 1.7 | 0.0 | 0.00 | 0.00 | 0.09 | 95 | 1012.1 |
| 20260508015844 | 57 | 70 | 1.7 | 0.0 | 0.00 | 0.00 | 0.09 | 95 | 1012.1 |
| 20260508015336 | 57 | 81 | 0.9 | 0.0 | 0.00 | 0.00 | 0.09 | 95 | 1012.2 |
| 20260508014906 | 57 | 78 | 0.9 | 0.0 | 0.00 | 0.00 | 0.09 | 95 | 1012.2 |
| 20260508014335 | 57 | 76 | 0.9 | 0.0 | 0.00 | 0.00 | 0.09 | 95 | 1012.3 |
| 20260508013841 | 57 | 82 | 1.7 | 0.0 | 0.00 | 0.00 | 0.09 | 95 | 1012.3 |
| 20260508013332 | 57 | 88 | 1.7 | 0.0 | 0.00 | 0.00 | 0.09 | 95 | 1012.4 |
| 20260508012843 | 58 | 96 | 1.7 | 0.0 | 0.00 | 0.00 | 0.09 | 95 | 1012.3 |
| 20260508012335 | 58 | 103 | 2.6 | 0.0 | 0.00 | 0.00 | 0.09 | 95 | 1012.4 |
| 20260508011845 | 58 | 55 | 2.6 | 0.0 | 0.00 | 0.00 | 0.09 | 95 | 1012.4 |
| 20260508010834 | 58 | 91 | 2.6 | 0.0 | 0.00 | 0.00 | 0.09 | 95 | 1012.5 |
| 20260508010344 | 58 | 84 | 2.6 | 0.0 | 0.00 | 0.00 | 0.09 | 95 | 1012.6 |
| 20260508005827 | 58 | 65 | 2.6 | 0.0 | 0.00 | 0.00 | 0.09 | 95 | 1012.7 |
| 20260508004834 | 58 | 86 | 2.6 | 0.0 | 0.00 | 0.00 | 0.09 | 95 | 1012.8 |
| 20260508004340 | 58 | 99 | 1.7 | 0.0 | 0.00 | 0.00 | 0.09 | 95 | 1012.9 |
| 20260508003830 | 58 | 83 | 1.7 | 0.0 | 0.00 | 0.00 | 0.09 | 95 | 1012.9 |
| 20260508003341 | 58 | 70 | 1.7 | 0.0 | 0.00 | 0.00 | 0.09 | 95 | 1012.9 |
| 20260508002831 | 58 | 56 | 1.7 | 0.0 | 0.00 | 0.00 | 0.09 | 95 | 1012.9 |
| 20260508002341 | 57 | 53 | 1.7 | 0.0 | 0.00 | 0.00 | 0.09 | 95 | 1012.9 |
| 20260508001827 | 57 | 45 | 1.7 | 0.0 | 0.00 | 0.00 | 0.09 | 95 | 1013.0 |
| 20260508001338 | 57 | 22 | 1.7 | 0.0 | 0.00 | 0.00 | 0.09 | 95 | 1013.0 |
| 20260508000828 | 57 | 56 | 1.7 | 0.0 | 0.00 | 0.00 | 0.09 | 95 | 1013.0 |
| 20260508000338 | 57 | 34 | 1.7 | 0.0 | 0.00 | 0.00 | 0.09 | 95 | 1013.1 |
| 20260507235841 | 57 | 44 | 1.7 | 0.0 | 0.00 | 0.00 | 0.09 | 95 | 1013.1 |
| 20260507235336 | 57 | 54 | 1.7 | 0.0 | 0.00 | 0.00 | 0.08 | 95 | 1013.2 |
| 20260507234846 | 57 | 27 | 1.7 | 0.0 | 0.00 | 0.00 | 0.08 | 95 | 1013.2 |
| 20260507234337 | 57 | 82 | 1.7 | 0.0 | 0.00 | 0.00 | 0.08 | 95 | 1013.2 |
| 20260507233826 | 57 | 73 | 1.7 | 0.0 | 0.00 | 0.00 | 0.08 | 95 | 1013.3 |
| 20260507233338 | 57 | 46 | 0.9 | 0.0 | 0.00 | 0.00 | 0.08 | 95 | 1013.5 |
| 20260507232905 | 57 | 105 | 1.7 | 0.0 | 0.00 | 0.00 | 0.08 | 95 | 1013.6 |
| 20260507232334 | 57 | 48 | 1.7 | 0.0 | 0.00 | 0.00 | 0.08 | 95 | 1013.6 |
| 20260507231845 | 57 | 48 | 0.9 | 0.0 | 0.00 | 0.00 | 0.08 | 95 | 1013.6 |
| 20260507231337 | 57 | 56 | 0.9 | 0.0 | 0.00 | 0.00 | 0.08 | 95 | 1013.6 |
| 20260507230827 | 57 | 63 | 1.7 | 0.0 | 0.00 | 0.00 | 0.08 | 95 | 1013.6 |
| 20260507230333 | 57 | 32 | 1.7 | 0.0 | 0.00 | 0.00 | 0.08 | 95 | 1013.6 |
| 20260507225837 | 58 | 93 | 0.9 | 0.0 | 0.00 | 0.00 | 0.07 | 95 | 1013.7 |
| 20260507225329 | 57 | 51 | 1.7 | 0.0 | 0.00 | 0.00 | 0.07 | 95 | 1013.8 |
| 20260507224839 | 57 | 42 | 2.6 | 0.0 | 0.00 | 0.00 | 0.06 | 95 | 1013.9 |
| 20260507224329 | 57 | 82 | 2.6 | 0.0 | 0.00 | 0.00 | 0.06 | 95 | 1013.9 |
| 20260507223835 | 57 | 84 | 3.5 | 0.0 | 0.00 | 0.00 | 0.06 | 94 | 1013.9 |
| 20260507223327 | 57 | 75 | 3.5 | 0.0 | 0.00 | 0.00 | 0.05 | 94 | 1013.9 |
| 20260507222837 | 57 | 86 | 3.5 | 0.0 | 0.00 | 0.00 | 0.03 | 94 | 1013.8 |
| 20260507222347 | 57 | 48 | 3.5 | 0.0 | 0.00 | 0.00 | 0.02 | 95 | 1013.9 |
| 20260507221856 | 57 | 73 | 3.5 | 0.0 | 0.00 | 0.00 | 0.01 | 95 | 1013.8 |
| 20260507221403 | 58 | 96 | 2.6 | 0.0 | 0.00 | 0.00 | 0.00 | 95 | 1013.8 |
| 20260507220832 | 58 | 106 | 1.7 | 0.0 | 0.00 | 0.00 | 0.00 | 95 | 1013.8 |
| 20260507220342 | 58 | 39 | 1.7 | 0.0 | 0.00 | 0.00 | 0.00 | 95 | 1013.7 |
| 20260507215826 | 58 | 78 | 1.7 | 0.0 | 0.00 | 0.00 | 0.00 | 95 | 1013.7 |
| 20260507215332 | 58 | 39 | 1.7 | 0.0 | 0.00 | 0.00 | 0.35 | 95 | 1013.7 |
| 20260507214843 | 57 | 44 | 1.7 | 0.0 | 0.00 | 0.00 | 0.35 | 95 | 1013.6 |
| 20260507214334 | 57 | 65 | 1.7 | 0.0 | 0.00 | 0.00 | 0.35 | 95 | 1013.6 |
| 20260507213903 | 58 | 43 | 1.7 | 0.0 | 0.00 | 0.00 | 0.35 | 95 | 1013.6 |
| 20260507213333 | 58 | 37 | 1.7 | 0.0 | 0.00 | 0.00 | 0.35 | 95 | 1013.7 |
| 20260507212839 | 58 | 46 | 1.7 | 0.0 | 0.00 | 0.00 | 0.35 | 95 | 1013.7 |
| 20260507212330 | 58 | 58 | 1.7 | 0.0 | 0.00 | 0.00 | 0.35 | 95 | 1013.8 |
| 20260507211840 | 58 | 60 | 1.7 | 0.0 | 0.00 | 0.00 | 0.35 | 95 | 1013.8 |
| 20260507211351 | 58 | 48 | 0.9 | 0.0 | 0.00 | 0.00 | 0.35 | 95 | 1013.8 |
| 20260507210840 | 58 | 50 | 0.9 | 0.0 | 0.00 | 0.00 | 0.35 | 95 | 1013.8 |
| 20260507210339 | 58 | 93 | 0.9 | 0.0 | 0.00 | 0.00 | 0.35 | 95 | 1013.7 |
| 20260507205844 | 58 | 89 | 0.9 | 0.0 | 0.00 | 0.00 | 0.35 | 95 | 1013.7 |
| 20260507205333 | 58 | 73 | 1.7 | 0.0 | 0.00 | 0.00 | 0.35 | 95 | 1013.6 |
| 20260507204844 | 58 | 54 | 1.7 | 0.0 | 0.00 | 0.00 | 0.35 | 95 | 1013.7 |
| 20260507204334 | 58 | 49 | 1.7 | 0.0 | 0.00 | 0.00 | 0.35 | 95 | 1013.6 |
| 20260507203900 | 58 | 56 | 1.7 | 0.0 | 0.00 | 0.00 | 0.35 | 95 | 1013.5 |
| 20260507203331 | 58 | 56 | 1.7 | 0.0 | 0.00 | 0.00 | 0.35 | 95 | 1013.5 |
| 20260507202852 | 58 | 76 | 0.9 | 0.0 | 0.00 | 0.00 | 0.35 | 95 | 1013.4 |
| 20260507202352 | 58 | 96 | 0.9 | 0.0 | 0.00 | 0.00 | 0.35 | 95 | 1013.4 |
| 20260507201853 | 58 | 66 | 0.9 | 0.0 | 0.00 | 0.00 | 0.35 | 95 | 1013.4 |
| 20260507201346 | 58 | 82 | 0.9 | 0.0 | 0.00 | 0.00 | 0.35 | 95 | 1013.4 |
| 20260507200842 | 58 | 43 | 0.9 | 0.0 | 0.00 | 0.00 | 0.35 | 95 | 1013.4 |
| 20260507200354 | 58 | 31 | 0.9 | 0.0 | 0.00 | 0.00 | 0.35 | 95 | 1013.3 |
| 20260507195838 | 58 | 32 | 1.7 | 0.0 | 0.00 | 0.00 | 0.35 | 95 | 1013.2 |
| 20260507195328 | 58 | 72 | 0.9 | 0.0 | 0.00 | 0.00 | 0.35 | 95 | 1013.2 |
| 20260507194835 | 58 | 71 | 1.7 | 0.0 | 0.00 | 0.00 | 0.35 | 95 | 1013.2 |
| 20260507194328 | 59 | 68 | 1.7 | 0.0 | 0.00 | 0.00 | 0.35 | 95 | 1013.2 |
| 20260507193837 | 59 | 42 | 1.7 | 0.0 | 0.00 | 0.00 | 0.34 | 95 | 1013.1 |
| 20260507193327 | 59 | 70 | 1.7 | 0.0 | 0.00 | 0.00 | 0.34 | 95 | 1013.0 |
| 20260507192837 | 59 | 46 | 0.9 | 0.0 | 0.00 | 0.00 | 0.34 | 95 | 1013.0 |
| 20260507192344 | 59 | 83 | 0.9 | 0.0 | 0.00 | 0.00 | 0.34 | 95 | 1012.9 |
| 20260507191834 | 59 | 65 | 0.9 | 0.0 | 0.00 | 0.00 | 0.34 | 95 | 1012.9 |
| 20260507191344 | 59 | 44 | 0.9 | 0.0 | 0.00 | 0.00 | 0.34 | 95 | 1012.9 |
| 20260507190834 | 59 | 50 | 0.9 | 0.0 | 0.00 | 0.00 | 0.33 | 94 | 1012.9 |
| 20260507190327 | 59 | 86 | 0.9 | 0.0 | 0.00 | 0.00 | 0.33 | 95 | 1012.9 |
| 20260507185845 | 59 | 111 | 1.7 | 0.0 | 0.00 | 0.00 | 0.33 | 95 | 1012.8 |
| 20260507185355 | 58 | 96 | 1.7 | 0.0 | 0.00 | 0.00 | 0.33 | 94 | 1012.8 |
| 20260507184845 | 58 | 91 | 1.7 | 0.0 | 0.00 | 0.00 | 0.33 | 94 | 1012.7 |
| 20260507184336 | 58 | 60 | 1.7 | 0.0 | 0.00 | 0.00 | 0.33 | 94 | 1012.6 |
| 20260507183839 | 59 | 99 | 1.7 | 0.0 | 0.00 | 0.00 | 0.33 | 94 | 1012.6 |
| 20260507183328 | 59 | 65 | 0.9 | 0.0 | 0.00 | 0.00 | 0.33 | 94 | 1012.5 |
| 20260507182858 | 59 | 117 | 1.7 | 0.0 | 0.00 | 0.00 | 0.33 | 94 | 1012.4 |
| 20260507182329 | 59 | 64 | 0.9 | 0.0 | 0.00 | 0.00 | 0.33 | 94 | 1012.3 |
| 20260507181828 | 59 | 45 | 0.9 | 0.0 | 0.00 | 0.00 | 0.33 | 94 | 1012.2 |
| 20260507181334 | 59 | 81 | 1.7 | 0.0 | 0.00 | 0.00 | 0.32 | 94 | 1012.2 |
| 20260507180904 | 59 | 54 | 2.6 | 0.0 | 0.00 | 0.00 | 0.31 | 94 | 1012.1 |
| 20260507180334 | 59 | 61 | 2.6 | 0.0 | 0.00 | 0.00 | 0.31 | 94 | 1012.0 |
| 20260507175837 | 59 | 82 | 1.7 | 0.0 | 0.00 | 0.00 | 0.30 | 94 | 1012.0 |
| 20260507175327 | 59 | 75 | 1.7 | 0.0 | 0.00 | 0.00 | 0.29 | 94 | 1011.9 |
| 20260507174853 | 59 | 78 | 1.7 | 0.0 | 0.00 | 0.00 | 0.29 | 94 | 1011.9 |
| 20260507174343 | 59 | 73 | 1.7 | 0.0 | 0.00 | 0.00 | 0.28 | 94 | 1011.9 |